Weather History for KCAK - August, 1959

Change the Weather History Date:

Wednesday, August 5, 1959

  Actual Average Record
Temperature  
Mean Temperature 72 °F 71 °F  
Max Temperature 77 °F 81 °F 98 °F (1918)
Min Temperature 66 °F 62 °F 46 °F (1951)
Degree Days  
Heating Degree Days 0 0  
Month to date heating degree days 0  
Since 1 June heating degree days 55  
Since 1 July heating degree days 6  
Cooling Degree Days 6 7  
Month to date cooling degree days 35  
Year to date cooling degree days 434  
Since 1 June cooling degree days 392  
Growing Degree Days 22 (Base 50)    
Moisture  
Dew Point 65 °F    
Average Humidity 82    
Maximum Humidity 100    
Minimum Humidity 60    
Precipitation  
Precipitation 0.00 in 0.12 in 2.00 in (2005)
Month to date precipitation 0.61  
Year to date precipitation 24.25  
Snow  
Snow 0.00 in 0.00 in - ()
Month to date snowfall 0.0  
Since 1 June snowfall 0.0  
Since 1 July snowfall 0.0  
Snow Depth -    
Sea Level Pressure  
Sea Level Pressure 29.95 in    
Wind  
Wind Speed 11 mph (NNW)    
Max Wind Speed 20 mph    
Max Gust Speed -    
Visibility 6 miles    
Events      
T = Trace of Precipitation, MM = Missing Value Source: NWS Daily Summary

Daily Weather History Graph

Daily Weather History Graph

Search for Another Location

Airport or City:

Trip Planner

Search our weather history database for the weather conditions in past years. The results will help you decide how hot, cold, wet, or windy it might be!

Date:

Astronomy

Aug. 05, 1959 Rise Set
Actual Time 6:24 AM EDT 8:37 PM EDT
Civil Twilight 5:54 AM EDT 9:08 PM EDT
Nautical Twilight 5:16 AM EDT 9:45 PM EDT
Astronomical Twilight 4:35 AM EDT 10:26 PM EDT
Moon 7:32 AM EDT (8/5) 9:05 PM EDT (8/5)
Length of Visible Light 15h 13m
Length of Day
14h 12m
New Moon, 1% of the Moon is Illuminated
Aug 5
New Moon
Aug 11
First Quarter
Aug 18
Full
Aug 26
Last Quarter
Sep 2
New

Hourly Weather History & Observations

Time (EDT) Temp. Dew Point Humidity Pressure Visibility Wind Dir Wind Speed Gust Speed Precip Events Conditions
12:00 AM 69.1 °F 68.0 °F 96% 29.92 in 5.5 mi NW 6.9 mph - N/A   Drizzle
1:00 AM 68.0 °F 68.0 °F 100% 29.91 in 0.8 mi NW 8.1 mph - N/A   Drizzle
2:00 AM 68.0 °F 68.0 °F 100% 29.91 in 1.0 mi NW 9.2 mph - N/A   Drizzle
3:00 AM 68.0 °F 68.0 °F 100% 29.91 in 10.5 mi NW 5.8 mph - N/A   Drizzle
4:00 AM 68.0 °F 66.9 °F 96% 29.91 in 10.5 mi NW 13.8 mph - N/A   Drizzle
5:00 AM 66.9 °F 66.0 °F 97% 29.91 in 10.5 mi NW 9.2 mph - N/A   Drizzle
6:00 AM 66.0 °F 64.9 °F 96% 29.92 in 5.5 mi NNW 10.4 mph - N/A   Drizzle
7:00 AM 66.0 °F 64.9 °F 96% 29.94 in 2.0 mi NW 9.2 mph - N/A   Drizzle
8:00 AM 66.9 °F 66.0 °F 97% 29.94 in 2.0 mi NNW 10.4 mph - N/A   Drizzle
9:00 AM 68.0 °F 64.9 °F 90% 29.95 in 10.5 mi North 11.5 mph - N/A   Drizzle
10:00 AM 70.0 °F 64.0 °F 81% 29.97 in 4.0 mi North 16.1 mph - N/A   Drizzle
11:00 AM 72.0 °F 64.0 °F 76% 29.98 in 8.0 mi NNW 17.3 mph - N/A   Drizzle
12:00 PM 72.0 °F 64.9 °F 78% 29.99 in 6.0 mi NW 13.8 mph - N/A   Drizzle
1:00 PM 75.9 °F 64.0 °F 67% 29.98 in 7.0 mi NNW 17.3 mph - N/A   Drizzle
2:00 PM 77.0 °F 64.0 °F 64% 29.97 in 7.0 mi NNW 17.3 mph - N/A   Drizzle
3:00 PM 77.0 °F 64.0 °F 64% 29.97 in 7.0 mi NW 17.3 mph - N/A   Drizzle
4:00 PM 77.0 °F 62.1 °F 60% 29.96 in 8.0 mi NNW 19.6 mph - N/A   Drizzle
5:00 PM 75.9 °F 61.0 °F 60% 29.96 in 7.0 mi NNW 17.3 mph - N/A   Drizzle
6:00 PM 75.0 °F 63.0 °F 66% 29.96 in 7.0 mi North 16.1 mph - N/A   Drizzle
7:00 PM 73.9 °F 62.1 °F 66% 29.96 in 6.0 mi North 15.0 mph - N/A   Drizzle
8:00 PM 72.0 °F 63.0 °F 73% 29.97 in 5.0 mi North 8.1 mph - N/A   Drizzle
9:00 PM 69.1 °F 62.1 °F 78% 29.97 in 4.0 mi North 5.8 mph - N/A   Drizzle
10:00 PM 66.9 °F 62.1 °F 84% 29.98 in 4.0 mi NNW 4.6 mph - N/A   Drizzle
11:00 PM 66.0 °F 62.1 °F 87% 29.98 in 4.0 mi NNW 4.6 mph - N/A   Drizzle